Pontiac, MI

8:22 AM EST on November 13, 2019 (GMT -0500)
Oakland County International

Weather History for KPTK - October, 2019

Change the Weather History Date:

Sunday, October 13, 2019

  Actual Average Record
Temperature  
Mean Temperature 51 °F -  
Max Temperature 60 °F 58 °F 78 °F (2008)
Min Temperature 42 °F 40 °F 30 °F (2012)
Degree Days  
Heating Degree Days 14    
Growing Degree Days 1 (Base 50)    
Moisture  
Dew Point 32 °F    
Average Humidity 55    
Maximum Humidity 68    
Minimum Humidity 32    
Precipitation  
Precipitation 0.00 in - - ()
Sea Level Pressure  
Sea Level Pressure 29.85 in    
Wind  
Wind Speed 12 mph (SW)    
Max Wind Speed 18 mph    
Max Gust Speed 37 mph    
Visibility 10 miles    
Events      
Averages and records for this station are not official NWS values.
T = Trace of Precipitation, MM = Missing Value Source: NWS Daily Summary

Daily Weather History Graph

Daily Weather History Graph

Search for Another Location

Airport or City:

Astronomy

Oct. 13, 2019 Rise Set
Actual Time 7:44 AM EDT 6:54 PM EDT
Civil Twilight 7:15 AM EDT 7:23 PM EDT
Nautical Twilight 6:43 AM EDT 7:55 PM EDT
Astronomical Twilight 6:10 AM EDT 8:28 PM EDT
Moon 7:18 PM EDT 7:15 AM EDT
Length of Visible Light 12h 07m
Length of Day
11h 10m
Full, 100% of the Moon is Illuminated
Oct 13
Full
Oct 13
Full
Oct 21
Last Quarter
Oct 27
New
Nov 4
First Quarter

Hourly Weather History & Observations

Time (EDT) Temp. Windchill Dew Point Humidity Pressure Visibility Wind Dir Wind Speed Gust Speed Precip Events Conditions
12:53 AM 43.0 °F 37.2 °F 30.0 °F 60% 29.94 in 10.0 mi South 10.4 mph 17.3 mph N/A   Clear
1:53 AM 43.0 °F 36.8 °F 30.0 °F 60% 29.93 in 10.0 mi SSW 11.5 mph - N/A   Clear
2:53 AM 44.1 °F 38.6 °F 30.0 °F 58% 29.92 in 10.0 mi SSW 10.4 mph 21.9 mph N/A   Clear
3:53 AM 43.0 °F 38.2 °F 30.9 °F 62% 29.91 in 10.0 mi SSW 8.1 mph 20.7 mph N/A   Clear
4:53 AM 43.0 °F 37.2 °F 30.9 °F 62% 29.90 in 10.0 mi SSW 10.4 mph 19.6 mph N/A   Clear
5:53 AM 43.0 °F 37.2 °F 30.9 °F 62% 29.89 in 10.0 mi SSW 10.4 mph 19.6 mph N/A   Partly Cloudy
6:53 AM 43.0 °F 37.2 °F 30.9 °F 62% 29.87 in 10.0 mi SSW 10.4 mph 18.4 mph N/A   Partly Cloudy
7:53 AM 42.1 °F 36.6 °F 30.9 °F 65% 29.86 in 10.0 mi SSW 9.2 mph 19.6 mph N/A   Partly Cloudy
8:53 AM 44.1 °F 37.7 °F 32.0 °F 63% 29.86 in 10.0 mi SSW 12.7 mph 19.6 mph N/A   Partly Cloudy
9:53 AM 46.0 °F 40.2 °F 33.1 °F 61% 29.85 in 10.0 mi SSW 12.7 mph 20.7 mph N/A   Partly Cloudy
10:53 AM 48.9 °F - 34.0 °F 56% 29.85 in 10.0 mi SW 12.7 mph 21.9 mph N/A   Partly Cloudy
11:53 AM 52.0 °F - 35.1 °F 53% 29.83 in 10.0 mi SSW 12.7 mph 26.5 mph N/A   Scattered Clouds
12:53 PM 55.0 °F - 35.1 °F 47% 29.81 in 10.0 mi South 18.4 mph 28.8 mph N/A   Scattered Clouds
1:53 PM 57.9 °F - 34.0 °F 41% 29.77 in 10.0 mi SSW 17.3 mph 27.6 mph N/A   Scattered Clouds
2:53 PM 60.1 °F - 33.1 °F 36% 29.75 in 10.0 mi SW 13.8 mph 29.9 mph N/A   Scattered Clouds
3:53 PM 60.1 °F - 30.0 °F 32% 29.74 in 10.0 mi SW 16.1 mph 36.8 mph N/A   Scattered Clouds
4:53 PM 59.0 °F - 28.9 °F 32% 29.75 in 10.0 mi SW 16.1 mph 27.6 mph N/A   Scattered Clouds
5:53 PM 55.9 °F - 27.0 °F 33% 29.78 in 10.0 mi WSW 16.1 mph 28.8 mph N/A   Scattered Clouds
6:41 PM 51.1 °F - 33.1 °F 50% 29.81 in 10.0 mi WNW 16.1 mph 26.5 mph N/A   Mostly Cloudy
6:53 PM 50.0 °F - 34.0 °F 54% 29.83 in 10.0 mi WNW 13.8 mph - N/A   Mostly Cloudy
7:53 PM 48.0 °F - 33.1 °F 56% 29.85 in 10.0 mi WNW 10.4 mph - N/A   Overcast
8:53 PM 46.0 °F 41.4 °F 35.1 °F 66% 29.87 in 10.0 mi NW 9.2 mph - N/A   Overcast
9:53 PM 45.0 °F 40.1 °F 35.1 °F 68% 29.88 in 10.0 mi WNW 9.2 mph - N/A   Overcast
10:53 PM 45.0 °F 39.3 °F 35.1 °F 68% 29.88 in 10.0 mi West 11.5 mph - N/A   Overcast
11:53 PM 45.0 °F 40.1 °F 35.1 °F 68% 29.88 in 10.0 mi West 9.2 mph - N/A   Overcast